EW5790 Weather Reports


time (UTC)temp
F
wind
direction
speed
knots
gust
knots
rain 1hr
in
rain 24hr
in
rain mn
in
humidity
%
barometer
mb
20260503203038 65 332 0.0 0.0 0.00 0.00 0.00 43 1018.0
20260503201530 64 294 0.0 0.0 0.00 0.00 0.00 46 1018.2
20260503200028 64 111 0.0 0.0 0.00 0.00 0.00 44 1018.6
20260503194522 64 254 0.0 0.0 0.00 0.00 0.00 40 1018.8
20260503193033 64 261 0.0 0.0 0.00 0.00 0.00 40 1019.0
20260503191531 63 291 0.0 0.0 0.00 0.00 0.00 40 1019.2
20260503190023 63 192 0.0 0.0 0.00 0.00 0.00 41 1019.5
20260503184504 63 343 0.0 0.0 0.00 0.00 0.00 39 1019.8
20260503183100 62 234 0.0 0.0 0.00 0.00 0.00 40 1019.8
20260503181556 61 186 0.0 0.0 0.00 0.00 0.00 40 1020.0
20260503180058 61 343 0.0 0.0 0.00 0.00 0.00 39 1020.3
20260503174552 61 248 0.0 0.0 0.00 0.00 0.00 44 1020.6
20260503173042 60 304 0.0 0.0 0.00 0.00 0.00 41 1020.9
20260503171537 60 285 0.0 0.0 0.00 0.00 0.00 40 1021.0
20260503081600 33 101 0.0 0.0 0.00 0.01 0.00 1 1020.7
20260503080104 33 101 0.0 0.0 0.00 0.01 0.00 1 1020.6
20260503071544 34 101 0.0 0.0 0.00 0.01 0.00 1 1020.4
20260503054516 37 101 0.0 0.0 0.00 0.01 0.00 1 1020.0
20260503053011 36 101 0.0 0.0 0.00 0.01 0.00 1 1019.8
20260503051506 37 101 0.0 0.0 0.00 0.01 0.00 1 1019.9
20260503050003 37 101 0.0 0.0 0.00 0.01 0.00 1 1019.8
20260503044558 37 101 0.0 0.0 0.00 0.01 0.00 1 1019.7
20260503043057 38 101 0.0 0.0 0.00 0.01 0.00 1 1019.7
20260503041550 39 101 0.0 0.0 0.00 0.01 0.00 4 1019.5
20260503040046 39 101 0.0 0.0 0.00 0.01 0.00 14 1019.4
20260503034545 40 101 0.0 0.0 0.00 0.01 0.01 18 1019.4
20260503033035 41 101 0.0 0.0 0.00 0.01 0.01 25 1019.4
20260503031532 42 101 0.0 0.0 0.00 0.01 0.01 29 1019.3
20260503030034 43 101 0.0 0.0 0.00 0.01 0.01 30 1019.2
20260503024523 44 101 0.0 0.0 0.00 0.01 0.01 35 1019.1
20260503023018 45 101 0.0 0.0 0.00 0.01 0.01 37 1019.0
20260503021514 45 101 0.0 0.0 0.00 0.01 0.01 50 1018.9
20260503020010 46 101 0.0 0.0 0.00 0.01 0.01 59 1018.8
20260503014505 47 101 0.0 0.0 0.00 0.01 0.01 61 1018.6
20260503013003 48 101 0.0 0.0 0.00 0.01 0.01 62 1018.4
20260503011557 48 101 0.0 0.0 0.00 0.01 0.01 65 1018.2
20260503010054 49 101 0.0 0.0 0.00 0.01 0.01 68 1017.9
20260503004550 49 101 0.0 0.0 0.00 0.01 0.01 69 1017.7
20260503003047 50 101 0.0 0.0 0.00 0.01 0.01 69 1017.6
20260503001546 52 315 0.0 0.0 0.00 0.01 0.01 63 1017.5
20260503000041 54 315 0.0 0.0 0.00 0.01 0.01 58 1017.2
20260502234540 55 321 0.0 0.0 0.00 0.01 0.01 53 1017.1
20260502233037 55 333 0.0 0.0 0.00 0.01 0.01 51 1017.0
20260502231526 55 305 0.0 0.0 0.00 0.01 0.01 53 1016.9
20260502230032 55 342 0.0 0.0 0.00 0.01 0.01 54 1016.9
20260502224522 56 321 0.0 0.0 0.00 0.01 0.01 51 1016.8
20260502223029 56 121 0.0 0.0 0.00 0.01 0.01 53 1016.8
20260502221515 55 16 0.0 0.0 0.00 0.01 0.01 51 1016.8
20260502220011 55 340 0.0 0.0 0.00 0.01 0.01 54 1016.7
20260502214505 56 90 0.0 0.0 0.00 0.01 0.01 54 1016.5
20260502213002 57 113 0.0 0.0 0.00 0.01 0.01 53 1016.6
20260502211557 56 22 0.0 0.0 0.00 0.01 0.01 56 1016.7
20260502210105 55 38 0.0 0.0 0.00 0.01 0.01 57 1016.8
20260502204553 55 332 0.0 0.0 0.00 0.01 0.01 58 1017.0